MDT,Max TemperatureF,Mean TemperatureF,Min TemperatureF,Max Dew PointF,MeanDew PointF,Min DewpointF,Max Humidity, Mean Humidity, Min Humidity, Max Sea Level PressureIn, Mean Sea Level PressureIn, Min Sea Level PressureIn, Max VisibilityMiles, Mean VisibilityMiles, Min VisibilityMiles, Max Wind SpeedMPH, Mean Wind SpeedMPH, Max Gust SpeedMPH,PrecipitationIn, CloudCover, Events, WindDirDegrees
2013-5-1,45,29,13,25,18,10,92,60,27,30.62,30.54,30.41,10,10,2,20,6,26,T,4,Snow,167
2013-5-2,63,42,21,24,18,11,81,49,16,30.65,30.45,30.25,10,10,10,20,6,23,0.00,0,,150
2013-5-3,51,42,33,43,36,21,96,66,36,30.25,30.22,30.17,10,10,2,18,8,30,0.14,6,Rain,300
2013-5-4,56,46,35,41,39,31,100,71,41,30.32,30.26,30.23,10,7,0,16,7,20,0.13,8,Fog-Rain,346
2013-5-5,65,48,30,31,28,27,89,57,25,30.27,30.14,30.02,10,10,10,17,8,22,0.00,0,,113
2013-5-6,72,54,35,35,30,25,76,49,22,30.04,29.95,29.83,10,10,10,14,5,17,0.00,0,,133
2013-5-7,72,56,40,36,33,30,65,44,22,30.01,29.87,29.81,10,10,10,24,7,33,0.00,1,,40
2013-5-8,67,51,34,38,35,31,85,59,32,30.13,30.10,30.05,10,10,10,16,6,21,0.00,0,,86
2013-5-9,72,57,41,40,36,34,76,51,26,30.11,30.08,30.04,10,10,10,15,5,20,T,1,,107
2013-5-10,65,52,39,37,33,23,85,56,27,30.39,30.27,30.09,10,10,10,23,8,31,0.00,1,,43
2013-5-11,74,54,33,44,32,23,69,46,23,30.41,30.20,30.04,10,10,8,18,6,23,T,3,Rain,154
2013-5-12,84,64,44,47,40,33,77,47,17,30.04,29.95,29.84,10,10,10,26,9,33,0.00,0,,241
2013-5-13,84,68,51,47,43,40,62,43,23,29.92,29.80,29.57,10,10,6,31,7,43,T,1,,297
2013-5-14,67,57,46,39,26,18,76,46,15,29.98,29.87,29.78,10,10,10,25,12,32,0.00,1,,302
2013-5-15,68,53,38,34,28,24,59,43,26,30.02,29.94,29.86,10,10,10,20,5,22,0.00,3,,354
2013-5-16,61,52,43,49,42,31,93,72,50,29.90,29.86,29.78,10,8,1,16,7,20,0.42,6,Rain,142
2013-5-17,57,52,46,49,46,43,100,83,66,29.92,29.87,29.83,10,10,6,13,5,15,0.23,7,Rain,260
2013-5-18,56,52,48,48,47,46,100,86,72,29.95,29.92,29.88,10,9,3,12,5,15,0.04,8,Rain,309
2013-5-19,52,50,47,50,47,46,100,93,86,30.12,30.03,29.94,10,8,2,17,10,24,0.91,8,Rain,307
2013-5-20,63,52,40,48,44,26,100,63,26,30.17,30.13,30.09,10,10,6,20,9,25,T,7,,299
2013-5-21,65,50,34,40,32,27,92,59,25,30.12,30.00,29.91,10,10,10,24,13,31,0.00,0,,112
2013-5-22,57,50,43,45,41,37,83,70,57,29.93,29.89,29.86,10,10,8,35,24,46,0.00,6,,113
2013-5-23,56,51,45,46,44,39,100,82,63,29.91,29.86,29.77,10,8,2,38,17,48,0.56,8,Rain,115
2013-5-24,63,52,41,45,38,27,100,63,25,29.94,29.87,29.79,10,9,2,28,11,36,0.14,5,Rain,280
2013-5-25,67,52,37,43,38,35,92,65,37,29.96,29.92,29.86,10,10,10,15,5,21,T,1,,305
2013-5-26,70,56,41,50,45,40,96,68,40,29.98,29.90,29.81,10,9,2,29,8,33,0.49,5,Rain,134
2013-5-27,59,49,39,46,43,39,100,74,47,29.93,29.82,29.76,10,10,7,25,8,32,0.01,3,Rain,269
2013-5-28,65,52,38,47,41,36,93,65,37,29.76,29.72,29.68,10,10,10,16,5,21,0.00,3,,209
2013-5-29,53,49,45,49,47,44,100,92,83,29.73,29.70,29.67,10,8,3,9,4,12,0.39,8,Rain,318
2013-5-30,49,46,43,48,44,41,100,93,86,29.88,29.78,29.65,10,8,2,28,17,36,1.25,8,Rain,297
2013-5-31,45,44,43,43,42,40,100,92,83,30.29,30.02,29.86,10,7,2,29,17,39,1.56,8,Rain,294